SCP
0 0 0 0 0 0 0 0 0 0 0 0 0 0 0 0 0 0 0 0 0 0 0 0 0 0 0 0 0 0 0 0 0 0 0 0 0 0
0 0 0 0 0 0 0 0 0 0 0 0 0 0 0 0 0 0 0 0 0 0 0 0 0 0 0 0 0 0 0 0 0 0 0 0 0 0
0 0 0 0 0 0 0 0 0 0 0 0 0 0 0 0 0 0 0 0 0 0 0 0 0 0 0 0 0 0 0 0 0 0 0 0 0 0
0 0 0 0 0 0 0 0 0 0 0 0 0 0 0 0 0 0 0 0 0 0 0 0 0 0 0 0 0 0 0 0 0 0 0 0 0 0
0 0 0 0 0 0 0 0 0 0 0 0 0 0 0 0 0 0 0 0 0 0 0 0 0 0 0 0 0 0 0 0 0 0 0 0 0 0
0 0 0 0 0 0 0 0 0 0 0 0 0 0 0 0 0 0 0 0 0 0 0 0 0 0 0 0 0 0 0 0 0 0 0 0 0 0
0 0 0 0 0 0 0 0 0 0 0 0 0 0 0 0 0 0 0 0 0 0 0 0 0 0 0 0 0 0 0 0 0 0 0 0 0 0
0 0 0 0 0 0 0 0 0 0 0 0 0 0 0 0 0 0 0 0 0 0 0 0 0 0 0 0 0 0 0 0 0 0 0 0 0 0
0 0 0 0 0 0 0 0 0 0 0 0 0 0 0 0 0 0 0 0 0 0 0 0 0 0 0 0 0 0 0 0 0 0 0 0 0 0
0 0 0 0 0 0 0 0 0 0 0 0 0 0 0 0 0 0 0 0 0 0 0 0 0 0 0 0 0 0 0 0 0 0 0 0 0 0
0 0 0 0 0 0 0 0 0 0 0 0 0 0 0 0 0 0 0 0 0 0 0 0 0 0 0 0 0 0 0 0 0 0 0 0 0 0
0 0 0 0 0 0 0 0 0 0 0 0 0 0 0 0 0 0 0 0 0 0 0 0 0 0 0 0 0 0 0 0 0 0 0 0 0 0
0 0 0 0 0 0 0 0 0 0 0 0 0 0 0 0 0 0 0 0 0 0 0 0 0 0 0 0 0 0 0 0 0 0 0 0 0 0
0 0 0 0 0 0 0 0 0 0 0 0 0 0 0 0 0 0 0 0 0 0 0 0 0 0 0 0 0 0 0 0 0 0 0 0 0 0
0 0 0 0 0 0 0 0 0 0 0 0 0 0 0 0 0 0 0 0 0 0 0 0 0 0 0 0 0 0 0 0 0 0 0 0 0 0
0 0 0 0 0 0 0 0 0 0 0 0 0 0 0 0 0 0 0 0 0 0 0 0 0 0 0 0 0 0 0 0 0 0 0 0 0 0
0 0 0 0 0 0 0 0 0 0 0 0 0 0 0 0 0 0 0 0 0 0 0 0 0 0 0 0 0 0 0 0 0 0 0 0 0 0
-0 0 0 0 0 0 0 0 0 0 0 0 0 0 0 0 0 0 0 0 0 0 0 0 0 0 0 0 0 0 0 0 0 0 0 0 0 0
0 0 0 0 0 0 0 0 0 0 0 0 0 0 0 0 0 0 0 0 0 0 0 0 0 0 0 0 0 0 0 0 0 0 0 0 0 0
0 0 0 0 0 0 0 0 0 0 0 0 0 0 0 0 0 0 0 0 0 0 0 0 0 0 0 0 0 0 0 0 0 0 0 0 0 0
0 0 0 0 0 0 0 0 0 0 0 0 0 0 0 0 0 0 0 0 0 0 0 0 0 0 0 0 0 0 0 0 0 0 0 0 0 0
0 0 0 0 0 0 0 0 0 0 0 0 0 0 0 0 0 0 0 0 0 0 0 0 0 0 0 0 0 0 0 0 0 0 0 0 0 0
0 0 0 0 0 0 0 0 0 0 0 0 0 0 0 0 0 0 0 0 0 0 0 0 0 0 0 0 0 0 0 0 0 0 0 0 0 0
Wind_Speed
2 3 2 2 2 2 2 2 2 2 1 1 1 2 2 3 4 3 3 6 7 8 8 9 9 10 10 11 11 12 12 12 11 12 12 12 12 12
2 4 3 2 2 2 2 2 2 3 2 1 1 2 2 3 4 3 3 6 6 6 6 7 7 8 8 9 9 10 10 11 11 11 11 11 11 12
2 3 3 2 2 2 2 2 2 3 3 1 1 2 3 3 2 1 2 2 2 4 4 5 5 6 6 7 7 8 9 9 10 10 11 11 12 12
2 3 2 2 2 2 1 2 2 2 3 2 1 1 2 2 1 1 1 2 1 2 3 2 3 4 4 5 5 6 7 8 9 9 10 11 11 12
3 3 2 2 2 1 1 2 1 2 2 2 1 1 1 1 2 1 2 1 0 1 2 1 1 2 2 3 4 5 5 6 7 8 9 10 11 11
2 3 3 3 1 1 2 2 2 2 2 2 1 1 0 1 1 0 1 1 1 1 1 1 0 0 1 2 3 4 5 5 6 8 9 9 10 11
3 3 4 5 6 4 3 2 2 1 1 2 1 1 0 1 0 1 0 1 2 1 1 1 0 1 1 1 2 3 4 5 6 8 9 9 10 11
3 3 4 4 5 5 6 5 4 2 2 1 1 1 1 0 0 0 0 1 2 2 1 2 0 1 2 1 1 2 3 4 6 8 9 10 10 11
2 2 2 3 3 2 2 3 2 2 2 2 1 1 1 0 0 1 1 0 2 2 1 2 1 1 1 1 2 3 3 5 6 8 9 10 10 11
2 2 2 2 1 2 2 2 1 0 1 1 2 1 1 0 1 1 1 1 1 2 1 1 2 2 2 1 4 4 4 6 7 8 9 10 10 12
2 2 2 2 3 3 2 2 1 0 1 3 2 1 2 2 2 2 2 1 2 2 1 0 2 3 2 2 3 4 5 6 7 8 9 9 10 11
2 2 3 3 3 2 1 2 2 1 0 0 0 1 0 1 1 1 1 0 1 2 2 1 2 3 3 2 1 2 3 6 7 8 9 9 9 5
2 2 1 3 3 3 2 1 1 1 0 0 0 0 0 0 1 1 1 1 1 2 2 1 1 2 2 4 3 2 2 2 3 5 7 9 9 6
2 2 2 4 4 3 2 1 1 1 0 0 0 1 1 1 1 1 1 1 2 3 2 0 1 2 2 4 4 3 3 3 3 3 3 6 8 10
2 4 4 4 4 2 3 2 1 0 0 0 1 2 1 1 1 1 1 1 2 2 2 1 2 2 2 3 4 4 4 4 2 2 3 3 3 4
2 3 3 3 3 2 2 2 2 2 1 2 2 1 1 0 1 1 1 1 2 3 3 3 2 2 3 4 4 4 4 3 4 3 3 3 4 3
3 2 2 2 2 2 2 2 2 2 2 2 1 1 1 1 1 1 1 1 2 2 3 3 2 2 3 3 4 4 4 4 4 4 4 4 4 4
4 2 3 3 3 3 3 3 2 3 3 2 2 2 2 2 2 1 1 1 2 3 3 2 2 3 3 4 4 4 3 4 4 4 4 4 5 5
4 3 3 3 3 3 3 3 3 3 2 2 2 2 2 2 1 2 2 2 2 3 3 2 1 1 4 6 5 3 3 4 4 4 4 4 6 6
3 4 3 3 3 2 2 2 2 2 2 2 2 2 2 2 2 2 2 2 3 3 3 2 2 2 4 5 5 5 6 5 4 5 5 4 5 7
4 4 3 3 2 2 2 2 2 2 2 2 2 2 2 2 2 2 2 3 3 3 3 4 4 4 3 2 4 5 4 6 6 5 5 5 6 5
3 3 3 3 3 2 2 2 2 2 3 2 2 2 3 2 3 3 2 2 3 3 4 4 3 2 2 3 5 6 6 5 6 9 9 8 5 5
3 3 3 3 3 2 2 3 3 3 2 3 3 3 3 2 2 2 3 3 3 3 3 3 3 2 3 4 5 5 7 7 5 5 5 9 12 14
Wind_Direction
64 73 74 59 49 51 72 96 119 112 74 99 78 105 102 94 87 78 88 83 74 64 56 50 48 45 42 40 38 36 34 32 30 29 27 24 21 19
65 67 60 55 51 46 45 43 74 118 110 91 104 120 105 99 99 89 90 101 85 73 59 49 45 44 43 42 38 36 32 29 26 23 20 17 15 12
93 92 78 65 64 48 39 51 58 89 109 89 79 93 95 90 87 91 105 113 97 89 69 51 42 40 40 40 37 33 29 24 20 15 12 10 7 4
112 102 100 82 69 52 52 60 67 89 112 122 99 80 94 113 109 85 86 100 108 118 106 76 49 39 38 37 35 31 25 19 14 9 5 2 359 357
102 98 93 89 90 66 68 66 66 80 95 114 116 83 75 76 66 27 28 14 36 124 139 133 70 44 34 30 36 27 18 12 7 1 357 355 352 350
90 90 86 86 84 92 78 68 74 82 91 103 105 69 72 65 79 17 346 330 318 338 31 153 169 350 14 14 14 7 5 360 355 351 348 347 344 342
109 99 90 86 77 76 81 70 71 81 101 107 109 69 39 41 324 250 287 287 299 317 322 270 214 253 262 305 326 346 353 352 348 342 339 337 336 335
127 129 128 111 100 94 92 87 86 99 117 116 137 167 226 210 280 359 337 354 315 311 335 294 233 241 239 217 276 313 318 329 331 331 330 329 330 329
123 130 125 121 133 141 122 104 72 66 118 142 160 213 186 218 104 328 306 282 254 280 9 300 300 287 275 243 249 268 291 308 312 317 321 323 325 324
122 129 129 120 98 103 113 108 113 160 184 152 157 191 133 93 167 210 238 303 305 325 42 293 309 302 299 268 251 255 282 294 299 308 315 318 319 320
95 85 104 110 88 84 121 135 119 131 133 126 132 124 69 41 46 49 20 19 316 304 326 297 304 309 290 268 264 257 271 283 293 301 306 310 311 316
121 100 90 116 107 99 141 154 163 212 145 53 354 327 334 359 10 139 176 237 289 300 317 350 317 338 314 293 293 290 281 283 289 294 299 302 303 306
152 154 144 151 148 135 123 129 155 126 142 158 175 232 321 211 250 224 187 176 208 256 288 358 315 322 291 301 306 290 282 290 287 290 288 293 298 299
164 151 147 154 155 146 144 126 83 55 38 341 257 258 254 256 253 239 238 216 209 230 249 227 269 280 294 298 296 304 312 298 285 283 284 303 300 299
161 154 157 162 161 168 190 200 186 158 191 220 244 246 235 239 249 286 301 287 279 270 264 244 240 263 265 274 287 300 310 300 288 305 304 299 293 296
180 171 178 184 185 205 203 212 200 192 198 225 235 248 285 302 266 248 271 284 287 287 277 263 243 248 270 273 278 289 293 293 308 304 300 294 293 289
170 165 179 181 193 210 210 206 200 199 221 232 226 245 259 261 266 268 260 275 277 286 297 296 285 269 258 265 277 279 287 293 295 303 309 301 291 288
165 177 198 205 208 206 205 209 205 209 215 213 216 227 236 244 263 273 259 251 267 277 283 290 309 327 324 298 254 268 284 288 294 297 299 300 297 295
172 200 208 210 212 208 205 204 209 211 205 201 207 223 237 247 257 271 268 263 267 273 280 285 293 303 303 302 292 273 284 289 294 291 285 285 287 291
201 206 211 214 212 208 206 207 204 196 196 204 208 219 225 233 244 255 255 260 269 277 288 289 272 255 258 273 284 294 282 278 282 286 286 285 280 282
206 212 212 211 210 207 204 202 201 196 202 209 215 220 223 226 241 249 252 273 273 274 279 275 270 272 266 287 292 288 284 278 283 286 292 299 300 298
206 208 209 209 211 209 204 200 205 207 211 216 219 225 230 229 237 243 248 258 260 263 274 279 283 289 283 278 281 288 294 297 294 295 291 287 293 296
210 208 205 203 206 202 202 207 210 213 213 217 224 230 229 232 235 237 248 252 262 272 279 289 295 289 279 275 279 286 294 299 299 299 294 299 298 294